Location: Bannatyne
(13.0833°N, 59.5333°W)
Time: 06:37:26
(UTC+00:00)

Vanguard 3 - Visible Passes

Search period start: 24 January 2020 00:00
Search period end: 03 February 2020 00:00
Orbit: 507 x 3263 km, 33.4° (Epoch: 23 January)

Date Brightness Start Highest point End Pass type
(mag) Time Alt. Az. Time Alt. Az. Time Alt. Az.
24 Jan 10.2 00:51:48 10° WNW 01:05:13 31° N 01:05:13 31° N visible
24 Jan 10.2 23:31:44 10° WNW 23:48:38 35° N 23:55:24 26° NNE visible
25 Jan 10.7 01:53:45 10° NW 01:59:58 23° NW 01:59:58 23° NW visible
25 Jan 10.6 22:12:03 10° W 22:30:20 42° NNW 22:45:31 10° NE visible
26 Jan 10.1 00:34:40 10° WNW 00:50:09 34° N 00:50:09 34° N visible
26 Jan 11.2 02:54:18 10° NW 02:54:42 11° NW 02:54:42 11° NW visible
26 Jan 10.2 23:14:59 10° WNW 23:32:15 36° N 23:40:20 24° NE visible
27 Jan 10.4 01:36:18 10° NW 01:44:54 29° NNW 01:44:54 29° NNW visible
27 Jan 10.7 21:55:37 10° WNW 22:13:39 40° NNW 22:29:20 10° NE visible
28 Jan 10.0 00:17:30 10° NW 00:34:01 37° N 00:35:07 36° NNE visible
28 Jan 11.0 02:36:49 10° NW 02:39:40 17° NW 02:39:40 17° NW visible
28 Jan 10.3 22:58:14 10° WNW 23:15:50 37° N 23:25:19 21° NE visible
29 Jan 10.2 01:18:49 10° NW 01:29:54 36° NNW 01:29:54 36° NNW visible
30 Jan 9.9 00:00:17 10° NW 00:17:43 40° N 00:20:09 38° NNE visible
30 Jan 10.7 02:19:18 10° NW 02:24:44 24° NW 02:24:44 24° NW visible
30 Jan 10.3 22:41:30 10° WNW 22:59:23 38° N 23:10:27 19° ENE visible
31 Jan 9.9 01:01:18 10° NW 01:15:02 46° NNW 01:15:02 46° NNW visible
31 Jan 9.8 23:43:04 10° NW 00:01:18 44° NNE 00:05:22 39° NE visible
01 Feb 10.4 02:01:46 10° NW 02:09:57 32° NW 02:09:57 32° NW visible
01 Feb 10.4 22:24:45 10° WNW 22:42:52 40° N 22:55:46 16° ENE visible
02 Feb 9.6 00:43:48 10° NW 01:00:21 57° N 01:00:21 57° N visible
02 Feb 11.1 03:02:32 10° WNW 03:04:56 15° WNW 03:04:56 15° WNW visible
